パンスターズ彗星

C/2015 T2 ( PanSTARRS )

English version
Home page
Updated on April 13, 2018

---------------------------------------------------------------------

・ プロフィール

発見日 2015年10月9日
発見光度 21.8等
発見者 Pan-STARRS 1 telescope (Haleakala)

・ 写真集

・ 軌道要素

Epoch 2017 May 7.0 TT = JDT 2457880.5
T 2017 May 20.45410 TT                                  MPCW
q   6.9353472            (2000.0)            P               Q
z  -0.0000508      Peri.   30.76289     +0.76567376     +0.05755083
 +/-0.0000008      Node    51.06043     +0.27837540     -0.92753290
e   1.0003521      Incl.  124.54726     +0.57987138     +0.36928394
From 174 observations 2015 Oct. 9-2017 Nov. 16, mean residual 0".4.

・ 光度変化

        m1 = -2.0 + 5 logΔ + 20.0 log r

---------------------------------------------------------------------

軌道要素はM.P.E.C. 2018-B155に掲載されたものです。
光度グラフはComet for Windowsで作成したものです。

---------------------------------------------------------------------

Copyright(C) Seiichi Yoshida (comet@aerith.net). All rights reserved.